{"data":{"norad_id":57800,"epoch":"2026-09-22T21:44:20.650848Z","epoch_age_seconds":98342,"freshness":"FRESH","line1":"1 57800U 23137A   26265.90579457  .00003583  00000+0  19154-3 0  9994","line2":"2 57800  31.0014  86.2637 0007512 232.1378 127.8582 15.13166488167677","mean_motion":15.13166488,"eccentricity":0.0007512,"inclination_deg":31.0014,"raan_deg":86.2637,"arg_perigee_deg":232.1378,"mean_anomaly_deg":127.8582,"bstar":0.00019154,"rev_number":16767,"period_min":95.164676948621,"perigee_km":521.36376421664,"apogee_km":531.73736681507,"semimajor_km":6904.6875655159,"source":"CELESTRAK","updated_at":"2026-09-23T09:00:18.384202Z"}}